EW2288 Weather Reports


time (UTC)temp
C
wind
direction
speed
KPH
gust
KPH
rain 1hr
cm
rain 24hr
cm
rain mn
cm
humidity
%
barometer
mb
20260506220016 1 0.0 0.0 0.00 0.00 0.00 88 1009.5
20260506215015 1 0.0 0.0 0.00 0.00 0.00 88 1009.4
20260506214016 1 0.0 3.2 0.00 0.00 0.00 88 1009.4
20260506213016 1 0.0 1.6 0.00 0.00 0.00 87 1009.4
20260506212036 1 0.0 4.8 0.00 0.00 0.00 87 1009.4
20260506211015 1 0.0 0.0 0.00 0.00 0.00 87 1009.3
20260506210015 1 158 3.2 6.4 0.00 0.00 0.00 87 1009.3
20260506205015 1 180 3.2 8.0 0.00 0.00 0.00 87 1009.1
20260506204016 1 0.0 3.2 0.00 0.00 0.00 86 1009.1
20260506203015 1 158 1.6 6.4 0.00 0.00 0.00 86 1009.2
20260506202018 2 158 1.6 4.8 0.00 0.00 0.00 86 1009.0
20260506201018 2 158 3.2 6.4 0.00 0.00 0.00 85 1009.1
20260506200017 2 0.0 4.8 0.00 0.00 0.00 84 1009.1
20260506195022 2 158 3.2 6.4 0.00 0.00 0.00 84 1009.0
20260506194057 3 180 1.6 6.4 0.00 0.00 0.00 83 1009.0
20260506193017 3 158 1.6 4.8 0.00 0.00 0.00 83 1008.9
20260506192017 3 135 1.6 6.4 0.00 0.00 0.00 82 1008.8
20260506191017 3 158 3.2 8.0 0.00 0.00 0.00 80 1008.8
20260506190018 4 180 3.2 8.0 0.00 0.00 0.00 79 1008.8
20260506185017 3 180 1.6 6.4 0.00 0.00 0.00 78 1008.7
20260506184017 3 158 6.4 14.5 0.00 0.00 0.00 77 1008.5
20260506183017 5 248 4.8 11.3 0.00 0.00 0.00 77 1008.5
20260506182017 4 180 1.6 6.4 0.00 0.00 0.00 79 1008.4
20260506181017 3 158 6.4 11.3 0.00 0.00 0.00 79 1008.3
20260506180017 3 158 6.4 11.3 0.00 0.00 0.00 80 1008.3
20260506175037 3 158 4.8 11.3 0.00 0.00 0.00 79 1008.3
20260506174017 3 158 3.2 11.3 0.00 0.00 0.00 76 1008.2
20260506173017 5 135 6.4 17.7 0.00 0.00 0.00 71 1008.2
20260506172017 7 338 3.2 9.7 0.00 0.00 0.00 61 1008.2
20260506171017 7 293 4.8 16.1 0.00 0.00 0.00 62 1007.8
20260506170017 6 315 8.0 17.7 0.00 0.00 0.00 62 1007.7
20260506165017 6 315 4.8 12.9 0.00 0.00 0.00 64 1007.7
20260506164017 5 270 4.8 12.9 0.00 0.00 0.00 64 1007.7
20260506163017 5 293 1.6 4.8 0.00 0.00 0.00 63 1007.7
20260506162017 6 293 6.4 12.9 0.00 0.00 0.00 61 1007.8
20260506161017 6 293 6.4 12.9 0.00 0.00 0.00 61 1007.6
20260506160017 6 315 6.4 16.1 0.00 0.00 0.00 61 1007.6
20260506155017 6 338 8.0 17.7 0.00 0.03 0.00 60 1007.6
20260506154037 6 338 6.4 17.7 0.00 0.03 0.00 59 1007.5
20260506153017 6 315 6.4 16.1 0.00 0.03 0.00 59 1007.5
20260506152017 6 338 4.8 14.5 0.00 0.03 0.00 58 1007.6
20260506151017 7 0 6.4 14.5 0.00 0.03 0.00 57 1007.6
20260506150037 7 23 4.8 12.9 0.00 0.03 0.00 59 1007.6
20260506145017 6 45 4.8 12.9 0.00 0.03 0.00 62 1007.7
20260506144017 6 23 4.8 16.1 0.00 0.03 0.00 66 1007.8
20260506143017 6 0 3.2 8.0 0.00 0.03 0.00 67 1007.8
20260506142017 6 315 1.6 6.4 0.00 0.03 0.00 71 1007.9
20260506141017 5 338 3.2 6.4 0.00 0.05 0.00 75 1007.9
20260506140017 5 270 4.8 12.9 0.00 0.05 0.00 73 1007.9
20260506135037 5 293 6.4 12.9 0.00 0.05 0.00 72 1007.9
20260506134017 5 45 3.2 9.7 0.00 0.05 0.00 71 1007.8
20260506133017 5 23 3.2 8.0 0.00 0.05 0.00 69 1007.8
20260506132036 5 338 4.8 9.7 0.00 0.05 0.00 69 1007.8
20260506131037 5 45 4.8 12.9 0.00 0.05 0.00 69 1007.6
20260506130016 6 338 6.4 16.1 0.00 0.05 0.00 68 1007.7
20260506125016 6 270 3.2 14.5 0.00 0.05 0.00 68 1007.7
20260506124016 6 315 4.8 19.3 0.00 0.05 0.00 60 1007.7
20260506123017 7 225 4.8 16.1 0.00 0.05 0.00 53 1007.5
20260506122036 7 270 6.4 12.9 0.00 0.05 0.00 53 1007.5
20260506121017 7 248 8.0 17.7 0.00 0.05 0.00 51 1007.5
20260506120036 7 248 8.0 22.5 0.00 0.05 0.00 52 1007.5
20260506115016 7 225 3.2 11.3 0.00 0.05 0.00 54 1007.4
20260506114016 7 248 6.4 14.5 0.00 0.05 0.00 53 1007.4
20260506113016 7 270 6.4 12.9 0.00 0.05 0.00 51 1007.3
20260506112016 7 248 6.4 25.7 0.00 0.05 0.00 51 1007.4
20260506111036 7 248 4.8 14.5 0.00 0.05 0.00 52 1007.4
20260506110036 6 270 6.4 14.5 0.00 0.05 0.00 52 1007.3
20260506105017 6 270 4.8 16.1 0.00 0.05 0.00 51 1007.3
20260506104016 6 270 8.0 22.5 0.00 0.05 0.00 50 1007.3
20260506103037 6 248 6.4 17.7 0.00 0.05 0.00 50 1007.2
20260506102016 6 203 3.2 9.7 0.00 0.05 0.00 49 1007.2
20260506101036 6 270 6.4 19.3 0.00 0.05 0.00 49 1007.2
20260506100016 6 248 4.8 12.9 0.00 0.05 0.00 50 1007.2
20260506095016 6 248 4.8 12.9 0.00 0.05 0.00 49 1007.2
20260506094016 6 270 4.8 22.5 0.00 0.05 0.00 51 1007.1
20260506093016 6 203 1.6 6.4 0.00 0.05 0.00 51 1007.1
20260506092016 6 225 3.2 11.3 0.00 0.05 0.00 53 1007.1
20260506091036 6 248 3.2 14.5 0.00 0.05 0.00 54 1007.2
20260506090016 5 270 4.8 11.3 0.00 0.05 0.00 54 1007.2
20260506085016 5 248 4.8 9.7 0.00 0.05 0.00 55 1007.2
20260506084016 6 225 3.2 14.5 0.00 0.05 0.00 54 1007.2
20260506083016 6 225 3.2 8.0 0.00 0.05 0.00 54 1007.2
20260506082016 6 293 1.6 6.4 0.00 0.05 0.00 53 1007.2
20260506081016 6 225 4.8 12.9 0.00 0.05 0.00 53 1007.1
20260506073016 5 225 3.2 11.3 0.00 0.08 0.00 56 1007.2
20260506072016 5 248 3.2 8.0 0.00 0.10 0.00 59 1007.2
20260506071016 4 203 1.6 8.0 0.00 0.10 0.00 62 1007.1
20260506062016 3 225 3.2 11.3 0.00 0.23 0.00 71 1007.0
20260506061016 2 225 1.6 8.0 0.00 0.23 0.00 74 1007.0
20260506051016 0 0.0 3.2 0.00 0.25 0.00 83 1006.9
20260506045015 0 158 1.6 8.0 0.00 0.25 0.00 84 1006.8
20260506044015 0 158 1.6 4.8 0.00 0.25 0.00 85 1006.8
20260506043015 0 158 3.2 8.0 0.00 0.25 0.00 85 1006.7
20260506042016 0 158 3.2 6.4 0.00 0.25 0.00 85 1006.8
20260506041016 0 158 3.2 12.9 0.00 0.25 0.00 86 1006.7
20260506040036 0 158 1.6 6.4 0.00 0.25 0.00 86 1006.7
20260506035018 0 158 1.6 6.4 0.00 0.25 0.00 86 1006.7
20260506034017 -1 158 3.2 9.7 0.00 0.25 0.00 86 1006.6
20260506033038 -1 158 1.6 6.4 0.00 0.25 0.00 86 1006.6
20260506032017 -1 158 1.6 6.4 0.00 0.25 0.00 86 1006.6
20260506031017 -1 180 1.6 6.4 0.00 0.25 0.00 86 1006.7
20260506030017 -1 0.0 0.0 0.00 0.25 0.00 85 1006.7
20260506025037 -1 0.0 3.2 0.00 0.25 0.00 85 1006.7
20260506024017 -1 158 1.6 3.2 0.00 0.25 0.00 85 1006.7
20260506023017 -1 158 1.6 8.0 0.00 0.25 0.00 85 1006.6
20260506022017 -1 0.0 3.2 0.00 0.25 0.00 85 1006.6
20260506021017 -1 135 1.6 6.4 0.00 0.25 0.00 85 1006.7
20260506020017 -1 158 3.2 8.0 0.00 0.25 0.00 85 1006.7
20260506015017 -1 158 3.2 8.0 0.00 0.25 0.00 84 1006.7
20260506014017 0 158 1.6 4.8 0.00 0.25 0.00 84 1006.7
20260506013017 0 158 1.6 8.0 0.00 0.25 0.00 84 1006.7
20260506012017 0 158 1.6 6.4 0.00 0.25 0.00 84 1006.6
20260506011017 0 158 3.2 11.3 0.00 0.25 0.00 84 1006.6
20260506010037 0 158 1.6 6.4 0.00 0.25 0.00 83 1006.6
20260506005017 0 180 1.6 6.4 0.00 0.25 0.00 83 1006.7
20260506004017 0 180 1.6 6.4 0.00 0.25 0.00 83 1006.6
20260506003017 0 180 1.6 6.4 0.00 0.25 0.00 82 1006.6
20260506002017 0 135 3.2 9.7 0.00 0.25 0.00 82 1006.6
20260506001017 0 180 3.2 8.0 0.00 0.25 0.00 82 1006.6
20260506000017 0 158 1.6 6.4 0.00 0.25 0.00 83 1006.6
20260505235017 0 158 3.2 6.4 0.00 0.25 0.00 83 1006.5
20260505234017 0 180 1.6 4.8 0.00 0.25 0.00 83 1006.4
20260505233037 0 158 1.6 6.4 0.00 0.25 0.00 83 1006.3
20260505232017 0 0.0 0.0 0.00 0.25 0.00 83 1006.2
20260505231017 0 0.0 3.2 0.00 0.25 0.00 83 1006.3
20260505230017 0 0.0 1.6 0.00 0.25 0.00 83 1006.2
20260505225017 0 0.0 3.2 0.00 0.25 0.00 82 1006.3
20260505224017 0 158 1.6 8.0 0.00 0.25 0.00 82 1006.3
20260505223017 0 0.0 6.4 0.00 0.25 0.00 82 1006.3
20260505222017 0 0.0 1.6 0.00 0.25 0.00 82 1006.4
20260505221017 0 0.0 4.8 0.00 0.25 0.00 82 1006.3